Zurück zum Katalog

GGSE 5

AktivNavigationLEO
NORAD 2834·PAYLOAD·🇺🇸 United States

Gestartet May 31, 1967 von Vandenberg Space Force Base

Loading…

Nächste Überflüge (nächste 24 Stunden)

TLE

AktuellSource: Space-Track

Epoche: Sep 14, 2026, 13:52 UTC

1 02834U 67053D   26257.57791730 -.00000010  00000-0  31727-4 0  9995
2 02834  69.9725 301.6431 0004576  94.1193 266.0436 13.96199772 18622

Verfolge GGSE 5 in Echtzeit mit AllMySat

Download on the App Store